Location: Bruderhein
(53.8035°N, 112.9265°W)
Time: 07:53:25
(UTC+00:00)

TIGRISAT - Pass Details

Date: 10 April 2023
Orbit: 599 x 682 km, 97.7° (Epoch: 03 June)

Event Time Altitude Azimuth Distance (km) Brightness Sun altitude
Rises 11:36:16 0° 149° (SSE) 2,986 ? -10.0°
Reaches altitude 10° 11:38:30 10° 145° (SE) 2,089 ? -9.7°
Maximum altitude 11:42:57 53° 69° (ENE) 834 ? -9.1°
Drops below altitude 10° 11:47:30 10° 353° (N) 2,137 ? -8.5°
Sets 11:49:48 0° 349° (N) 3,061 ? -8.2°
